Terminal Aerodrome Forecast
Issued by NWS Houston/Galveston TX

Home | Current Version | Previous Version | Text Only | Print | Product List | Glossary On
Versions: 1 2 3 4 5 6 7 8 9 10 11 12 13 14 15 16 17 18 19 20 21 22 23 24 25 26 27 28 29 30 31 32 33 34 35 36 37 38 39 40 41 42 43 44 45 46 47 48 49 50
000
FTUS44 KHGX 220305 AAB
TAFHOU
TAF AMD
KHOU 220305Z 2203/2224 15005KT P6SM FEW008 BKN060
     FM220500 16005KT P6SM SCT008 BKN035
     FM220700 17004KT P6SM BKN006 OVC015 WS020/23035KT
     FM221500 20009KT P6SM SCT007 BKN015
     FM221800 22011G21KT P6SM BKN015 BKN025
     FM222100 22010G20KT P6SM SCT025 OVC250=

USA.gov is the U.S. government's official web portal to all federal, state and local government web resources and services.